Weather History for Greenville/Spartanburg, SC

Change the Weather History Date:

Monday, January 2, 2012

  Actual Average Record
Temperature  
Mean Temperature 37 °F 42 °F  
Max Temperature 49 °F 52 °F 74 °F (1952)
Min Temperature 25 °F 32 °F 5 °F (1928)
Degree Days  
Heating Degree Days 28 23  
Month to date heating degree days 42 46  
Since 1 July heating degree days 1082 1249  
Cooling Degree Days 0 0  
Month to date cooling degree days 0 0  
Year to date cooling degree days 0 0  
Moisture  
Dew Point 14 °F    
Average Humidity 41    
Maximum Humidity 64    
Minimum Humidity 17    
Precipitation  
Precipitation 0.00 in 0.12 in 1.76 in (1919)
Month to date precipitation 0.00 0.24  
Year to date precipitation 0.00 0.24  
Snow  
Snow 0.00 in 0.00 in 1.60 in (2002)
Month to date snowfall 0.0 0.1  
Since 1 July snowfall 0.0 0.6  
Snow Depth 0.00 in    
Sea Level Pressure  
Sea Level Pressure 30.04 in    
Wind  
Wind Speed 8 mph (WNW)    
Max Wind Speed 21 mph    
Max Gust Speed 32 mph    
Visibility 10 miles    
Events      
T = Trace of Precipitation, MM = Missing Value Source: NWS Daily Summary

Daily Weather History Graph

Daily Weather History Graph

Search for Another Location

Airport:

Trip Planner

Search our weather history database for the weather conditions in past years. The results will help you decide how hot, cold, wet, or windy it might be!

Date:

Astronomy

Jan. 02, 2012 Rise Set
Actual Time 7:36 AM EST 5:28 PM EST
Civil Twilight 7:08 AM EST 5:56 PM EST
Nautical Twilight 6:37 AM EST 6:28 PM EST
Astronomical Twilight 6:06 AM EST 6:59 PM EST
Moon 12:39 PM EST (1/2) 1:35 AM EST (1/2)
Length of Visible Light 10h 48m
Length of Day
9h 52m
Waxing Gibbous, 63% of the Moon is Illuminated
Jan 2
Waxing Gibbous
Jan 9
Full
Jan 16
Last Quarter
Jan 23
New
Jan 30
First Quarter

Hourly Weather History & Observations

Time (EST) Temp. Windchill Dew Point Humidity Pressure Visibility Wind Dir Wind Speed Gust Speed Precip Events Conditions
12:53 AM 44.1 °F 41.5 °F 24.1 °F 45% 30.04 in 10.0 mi NNW 4.6 mph - N/A   Clear
1:53 AM 41.0 °F - 23.0 °F 49% 30.04 in 10.0 mi Calm Calm - N/A   Clear
2:53 AM 39.0 °F 36.8 °F 21.9 °F 50% 30.03 in 10.0 mi NE 3.5 mph - N/A   Clear
3:53 AM 37.9 °F - 19.9 °F 48% 30.03 in 10.0 mi Calm Calm - N/A   Clear
4:53 AM 37.0 °F - 19.9 °F 50% 30.03 in 10.0 mi Calm Calm - N/A   Clear
5:53 AM 34.0 °F - 19.9 °F 56% 30.05 in 10.0 mi Calm Calm - N/A   Clear
6:53 AM 32.0 °F - 21.0 °F 64% 30.05 in 10.0 mi Calm Calm - N/A   Clear
7:53 AM 33.1 °F - 19.0 °F 56% 30.08 in 10.0 mi Calm Calm - N/A   Clear
8:53 AM 34.0 °F 31.0 °F 23.0 °F 64% 30.09 in 10.0 mi SW 3.5 mph - N/A   Clear
9:53 AM 42.8 °F - 17.6 °F 36% 30.08 in 10.0 mi Calm Calm - N/A   Clear
10:53 AM 44.1 °F 38.6 °F 10.0 °F 25% 30.07 in 10.0 mi SW 10.4 mph 16.1 mph N/A   Clear
11:53 AM 46.0 °F 40.2 °F 9.0 °F 22% 30.03 in 10.0 mi WSW 12.7 mph 21.9 mph N/A   Clear
12:53 PM 46.9 °F - 10.9 °F 23% 29.99 in 10.0 mi WSW 12.7 mph 20.7 mph N/A   Clear
1:53 PM 48.2 °F - 8.6 °F 20% 29.95 in 10.0 mi West 12.7 mph 24.2 mph N/A   Clear
2:53 PM 48.2 °F - 6.8 °F 19% 29.93 in 10.0 mi West 16.1 mph 27.6 mph N/A   Clear
3:53 PM 46.0 °F 41.4 °F 3.0 °F 17% 29.94 in 10.0 mi WNW 9.2 mph 19.6 mph N/A   Clear
4:53 PM 42.1 °F 34.9 °F 5.0 °F 22% 29.97 in 10.0 mi WNW 13.8 mph 25.3 mph N/A   Clear
5:53 PM 39.0 °F 30.6 °F 7.0 °F 27% 30.01 in 10.0 mi WNW 15.0 mph 27.6 mph N/A   Clear
6:53 PM 36.0 °F 26.3 °F 3.9 °F 26% 30.04 in 10.0 mi WNW 16.1 mph 26.5 mph N/A   Clear
7:53 PM 32.0 °F 22.5 °F 16.0 °F 52% 30.08 in 10.0 mi North 12.7 mph 19.6 mph N/A   Clear
8:53 PM 28.9 °F 19.8 °F 15.1 °F 56% 30.10 in 10.0 mi NNW 10.4 mph 18.4 mph N/A   Clear
9:53 PM 28.9 °F 18.6 °F 7.0 °F 40% 30.12 in 10.0 mi North 12.7 mph 18.4 mph N/A   Clear
10:53 PM 26.1 °F 16.2 °F 12.0 °F 55% 30.14 in 10.0 mi NNW 10.4 mph 18.4 mph N/A   Clear
11:53 PM 26.1 °F 16.8 °F 9.0 °F 49% 30.14 in 10.0 mi North 9.2 mph - N/A   Partly Cloudy